Tracking 19149 objects as of 22-Apr-2018
HD Live streaming from Space Station
objects crossing your sky now

RADUGA 1-1

Track RADUGA 1-1 now!
RADUGA 1-1 is classified as:


NORAD ID: 20083
Int'l Code: 1989-048A
Perigee: 36,164.1 km
Apogee: 36,310.3 km
Inclination: 15.3 °
Period: 1,458.8 minutes
Semi major axis: 42608 km
RCS: 2.8183 m2 (large)
Launch date: June 21, 1989
Source: Commonwealth of Independent States (former USSR) (CIS)
Launch site: TYURATAM MISSILE AND SPACE COMPLEX (TTMTR)
aabbcc
Your satellite tracking list
Your tracking list is empty




NASA's NSSDC Master Catalog

Two Line Element Set (TLE):
1 20083U 89048A   18111.93934880 -.00000209  00000-0  00000+0 0  9999
2 20083  15.3260 359.4234 0017152  65.4019 124.2818  0.98710463101863
Source of the keplerian elements: AFSPC